Lid_Strength_Index
0 0 0 0 0 0 0 1 1 2 1 -0 0 1 1 2 3 7 10 5 2 -1 0 4 4 4 5 5 5 7 12 13 11 11 9 8 8 7 6 6 5 5 5 4 2
1 0 0 0 -0 -0 -0 0 0 1 1 2 2 1 2 1 6 9 6 3 1 0 4 5 7 5 8 7 6 9 13 13 10 9 9 8 8 8 7 7 7 6 4 3 2
1 1 -0 -0 -0 -0 -0 -1 -0 0 -0 1 1 2 3 4 9 11 3 2 2 2 4 4 5 6 9 8 7 9 12 11 9 9 8 8 9 8 8 9 6 7 5 4 4
1 1 0 0 -0 -1 -1 -1 -1 -1 -0 0 0 1 2 6 17 7 -0 0 -0 4 5 5 6 9 11 11 8 10 9 9 8 8 8 9 7 8 8 7 6 6 4 4 4
1 1 1 1 0 -1 -1 -0 -1 -1 -1 -1 -0 1 5 10 11 7 2 1 1 4 7 7 8 9 11 11 9 10 10 9 8 8 8 8 9 8 8 6 5 4 4 4 4
1 2 1 1 0 0 -0 -1 -0 -1 -1 -1 -1 1 7 13 6 5 5 4 3 4 6 5 7 7 9 10 11 10 10 9 8 8 8 9 9 8 8 7 5 5 5 4 4
-1 0 1 1 1 -0 0 -1 -0 -0 -1 -1 -1 4 8 9 4 5 5 5 5 4 6 4 4 6 8 10 9 9 11 10 10 9 9 8 11 10 7 7 8 6 5 5 4
-0 -1 -0 1 1 0 -0 -1 -1 -1 0 -1 -1 4 9 4 4 4 5 5 4 5 4 4 4 5 6 7 8 10 11 15 12 9 9 10 15 10 8 8 8 8 8 7 4
-0 -0 -1 -0 0 0 -0 -1 -1 -1 -1 -1 3 6 10 3 6 4 4 5 3 4 5 6 6 9 8 10 12 12 17 14 12 9 10 11 14 10 9 9 9 9 8 8 7
-1 -0 -1 -1 -1 -1 -1 -1 -1 -1 -0 -0 2 8 8 9 6 6 5 4 4 5 6 7 7 11 13 14 18 15 14 13 13 11 12 13 13 10 9 11 11 10 10 9 9
-1 -1 -1 -1 -2 -1 -1 2 4 5 3 6 7 8 8 7 5 7 5 5 5 7 12 9 12 14 12 12 14 13 14 15 14 11 13 14 14 12 10 12 11 10 10 10 10
-2 -1 -2 -1 -1 -2 -0 4 5 4 8 4 5 5 5 6 9 7 4 7 8 11 10 11 13 10 9 10 13 14 15 17 15 14 14 15 15 13 11 12 12 12 12 11 10
-1 -1 -2 -2 -2 -0 2 3 1 1 8 7 5 5 5 5 9 9 6 8 10 11 11 14 12 9 10 11 12 13 14 15 15 13 15 17 18 16 14 13 13 12 11 10 10
-1 -1 -1 -2 1 1 3 1 0 1 12 11 8 6 5 5 9 7 6 7 10 12 11 12 12 11 11 12 11 15 11 12 12 14 17 16 22 19 17 16 15 14 12 11 11
-1 -1 -1 -1 2 4 3 -0 0 3 19 9 9 3 5 7 7 9 6 8 11 11 11 15 13 12 13 12 10 13 10 11 12 14 15 16 18 20 17 17 15 13 12 12 12
-1 -1 -1 0 1 1 1 0 2 13 19 12 9 9 9 8 8 7 8 7 8 10 12 14 12 12 12 10 9 10 12 12 13 14 21 18 18 21 18 16 15 13 12 12 12
-1 -1 -0 -0 4 1 -0 4 14 18 10 13 12 10 10 11 10 9 10 11 12 17 16 14 14 12 10 12 10 11 14 19 19 19 22 18 18 18 16 14 13 12 12 12 12
-1 -1 -0 0 0 -0 2 10 17 14 13 10 10 10 12 11 10 10 11 13 11 13 15 17 20 13 11 12 13 12 13 18 22 21 19 16 19 18 14 13 12 12 12 12 12
-1 1 2 1 0 1 7 15 15 14 11 11 11 13 13 11 11 11 12 12 11 12 14 17 17 12 12 10 9 13 15 12 17 23 21 19 18 17 15 14 13 13 12 12 12
5 5 3 0 0 3 10 13 12 10 9 10 14 12 15 13 13 13 13 10 11 9 11 13 16 13 11 10 10 11 10 16 18 25 25 21 20 19 17 15 14 14 13 12 12
4 8 4 0 1 7 13 12 11 9 9 11 12 14 13 14 12 13 13 11 9 9 9 12 13 15 11 13 14 13 14 14 15 17 21 24 21 18 16 15 15 14 13 12 12
5 11 3 1 9 9 12 10 8 10 8 10 10 11 12 11 13 13 13 11 8 8 12 10 13 16 14 12 9 10 12 12 16 19 18 19 19 16 16 15 14 14 13 12 11
7 8 3 3 12 12 12 10 9 10 10 10 12 10 10 12 14 12 11 8 8 9 11 9 13 17 16 14 14 13 12 11 12 15 17 19 18 15 15 15 14 14 14 12 11
7 13 8 6 7 14 14 13 13 10 10 9 10 10 11 13 11 12 12 10 8 8 7 7 12 14 17 15 14 14 13 12 12 15 16 16 15 14 15 14 14 14 13 13 11
7 12 10 11 10 11 12 13 14 16 11 10 11 10 11 14 13 13 11 10 9 8 8 10 15 13 12 11 13 13 12 12 13 13 15 14 15 14 12 13 13 13 13 13 12
8 9 8 10 9 11 11 14 13 14 12 13 12 10 10 11 11 14 11 11 12 9 10 9 14 13 15 12 12 14 13 12 12 11 12 12 13 11 10 11 13 12 13 13 12
4 4 6 9 10 12 13 13 12 11 11 10 10 11 11 10 9 9 9 9 9 10 11 12 13 14 17 13 13 16 13 12 12 11 11 14 12 9 10 11 12 13 13 11 11